Date String (YYYY-MM-DD hh:mm:ss) UTC,Instrument flags,Ambient pressure (hPa),Sample flow (lpm),Bypass flow (lpm),Sample temperature (°C),Ambient temperature (°C),ASC tube jacket temperature (°C),LED temperature (°C),Box temperature (°C),Sample RH (%),Span deviation,Mass concentration (μg/m³),Mass concentration (μg/m³),Mass concentration (μg/m³)
DateTimeUTC,F1_M11,P_M11,Q1_M11,Q2_M11,T1_M11,T2_M11,T3_M11,T4_M11,T5_M11,U1_M11,ZSPAN_M11,X0_M11,X2_M11,X1_M11
2023-01-25 00:00:00,,0824.4,5.01,0.00,22.2,20.8,00.0,31.0,24.1,11.6,-002.3,0024.15,0015.91,0015.09
2023-01-25 00:01:00,,0824.4,4.98,0.00,22.2,20.8,00.0,31.0,24.1,11.6,-002.3,0024.41,0015.90,0015.08
2023-01-25 00:02:00,,0824.4,5.00,0.00,22.3,20.9,00.0,31.0,24.1,11.6,-002.2,0024.34,0015.84,0015.07
2023-01-25 00:03:00,,0824.5,5.00,0.00,22.3,20.9,00.0,31.0,24.1,11.7,-002.4,0023.89,0015.86,0015.07
2023-01-25 00:04:00,,0824.4,4.99,0.00,22.3,20.9,00.0,31.0,24.1,11.6,-002.3,0023.42,0015.84,0015.08
2023-01-25 00:05:00,,0824.5,4.99,0.00,22.3,21.0,00.0,31.0,24.1,11.6,-002.4,0023.30,0015.86,0015.09
2023-01-25 00:06:00,,0824.4,5.00,0.00,22.3,21.0,00.0,31.0,24.1,11.6,-002.3,0023.08,0015.86,0015.10
2023-01-25 00:07:00,,0824.5,5.01,0.00,22.3,21.0,00.0,31.0,24.1,11.6,-002.3,0022.06,0015.82,0015.05
2023-01-25 00:08:00,,0824.4,5.01,0.00,22.3,21.0,00.0,31.0,24.1,11.6,-002.3,0021.90,0015.77,0015.00
2023-01-25 00:09:00,,0824.4,5.00,0.00,22.3,21.1,00.0,31.0,24.2,11.6,-002.5,0021.82,0015.73,0014.96
2023-01-25 00:10:00,,0824.4,5.02,0.00,22.3,21.1,00.0,31.0,24.2,11.5,-002.6,0022.02,0015.69,0014.91
2023-01-25 00:11:00,,0824.5,5.00,0.00,22.3,21.1,00.0,31.1,24.2,11.5,-002.6,0021.79,0015.56,0014.83
2023-01-25 00:12:00,,0824.4,5.00,0.00,22.4,21.2,00.0,31.1,24.2,11.5,-002.5,0021.35,0015.46,0014.73
2023-01-25 00:13:00,,0824.5,4.99,0.00,22.4,21.2,00.0,31.1,24.2,11.4,-002.5,0021.21,0015.44,0014.69
2023-01-25 00:14:00,,0824.5,5.00,0.00,22.4,21.2,00.0,31.1,24.2,11.4,-002.4,0020.98,0015.38,0014.63
2023-01-25 00:15:00,,0824.5,5.01,0.00,22.4,21.2,00.0,31.1,24.2,11.4,-002.3,0021.05,0015.34,0014.57
2023-01-25 00:16:00,,0824.4,5.00,0.00,22.4,21.2,00.0,31.1,24.3,11.4,-002.1,0021.34,0015.27,0014.51
2023-01-25 00:17:00,,0824.4,5.01,0.00,22.4,21.2,00.0,31.1,24.3,11.4,-002.1,0021.21,0015.21,0014.44
2023-01-25 00:18:00,,0824.5,5.00,0.00,22.4,21.2,00.0,31.1,24.3,11.4,-002.2,0021.25,0015.21,0014.41
2023-01-25 00:19:00,,0824.4,5.00,0.00,22.4,21.2,00.0,31.1,24.3,11.4,-002.1,0021.25,0015.24,0014.43
2023-01-25 00:20:00,,0824.4,5.00,0.00,22.4,21.2,00.0,31.1,24.3,11.4,-002.0,0021.44,0015.28,0014.45
2023-01-25 00:21:00,,0824.4,5.00,0.00,22.4,21.3,00.0,31.1,24.3,11.4,-002.0,0021.37,0015.25,0014.47
2023-01-25 00:22:00,,0824.4,5.00,0.00,22.4,21.3,00.0,31.1,24.3,11.4,-002.0,0021.28,0015.25,0014.49
2023-01-25 00:23:00,,0824.4,5.00,0.00,22.5,21.3,00.0,31.2,24.3,11.4,-002.1,0021.30,0015.27,0014.52
2023-01-25 00:24:00,,0824.4,5.00,0.00,22.5,21.3,00.0,31.2,24.3,11.4,-002.0,0021.26,0015.30,0014.55
2023-01-25 00:25:00,,0824.4,5.00,0.00,22.5,21.3,00.0,31.2,24.3,11.4,-002.0,0021.29,0015.32,0014.60
2023-01-25 00:26:00,,0824.6,5.00,0.00,22.5,21.3,00.0,31.2,24.3,11.4,-002.0,0021.30,0015.36,0014.64
2023-01-25 00:27:00,,0824.5,5.01,0.00,22.5,21.3,00.0,31.2,24.3,11.4,-002.2,0021.28,0015.40,0014.68
2023-01-25 00:28:00,,0824.6,4.99,0.00,22.5,21.3,00.0,31.2,24.3,11.4,-002.3,0021.47,0015.44,0014.73
2023-01-25 00:29:00,,0824.4,5.00,0.00,22.5,21.3,00.0,31.2,24.3,11.4,-002.2,0021.31,0015.46,0014.76
2023-01-25 00:30:00,,0824.5,5.01,0.00,22.5,21.3,00.0,31.2,24.3,11.4,-002.3,0021.29,0015.48,0014.78
2023-01-25 00:31:00,,0824.5,5.00,0.00,22.5,21.3,00.0,31.2,24.3,11.4,-002.2,0021.17,0015.48,0014.77
2023-01-25 00:32:00,,0824.7,4.99,0.00,22.5,21.2,00.0,31.2,24.3,11.4,-002.2,0021.08,0015.53,0014.79
2023-01-25 00:33:00,,0824.8,4.99,0.00,22.5,21.2,00.0,31.2,24.3,11.4,-002.1,0021.44,0015.64,0014.84
2023-01-25 00:34:00,,0824.9,5.00,0.00,22.5,21.2,00.0,31.2,24.3,11.4,-002.3,0022.20,0015.71,0014.88
2023-01-25 00:35:00,,0824.9,5.01,0.00,22.5,21.2,00.0,31.2,24.3,11.4,-002.3,0022.50,0015.73,0014.88
2023-01-25 00:36:00,,0824.6,5.00,0.00,22.5,21.2,00.0,31.2,24.3,11.4,-002.2,0022.50,0015.76,0014.89
2023-01-25 00:37:00,,0824.5,5.01,0.00,22.5,21.2,00.0,31.2,24.3,11.4,-002.2,0023.22,0015.77,0014.89
2023-01-25 00:38:00,,0824.7,4.99,0.00,22.5,21.2,00.0,31.2,24.3,11.4,-002.1,0023.42,0015.78,0014.91
2023-01-25 00:39:00,,0824.7,5.01,0.00,22.5,21.2,00.0,31.2,24.3,11.4,-002.0,0023.31,0015.79,0014.92
2023-01-25 00:40:00,,0824.6,4.99,0.00,22.5,21.2,00.0,31.2,24.3,11.3,-002.0,0023.50,0015.83,0014.93
2023-01-25 00:41:00,,0824.6,5.01,0.00,22.5,21.2,00.0,31.2,24.3,11.3,-002.2,0023.36,0015.71,0014.84
2023-01-25 00:42:00,,0824.7,4.99,0.00,22.5,21.1,00.0,31.2,24.3,11.3,-002.3,0023.33,0015.60,0014.75
2023-01-25 00:43:00,,0824.7,5.00,0.00,22.5,21.2,00.0,31.2,24.3,11.2,-002.4,0023.25,0015.49,0014.64
2023-01-25 00:44:00,,0824.7,5.02,0.00,22.5,21.2,00.0,31.2,24.3,11.2,-002.4,0022.81,0015.30,0014.46
2023-01-25 00:45:00,,0824.7,5.01,0.00,22.5,21.2,00.0,31.2,24.3,11.2,-002.5,0022.07,0015.01,0014.20
2023-01-25 00:46:00,,0824.6,4.99,0.00,22.5,21.2,00.0,31.2,24.3,11.2,-002.5,0021.14,0014.73,0013.96
2023-01-25 00:47:00,,0824.7,4.99,0.00,22.5,21.2,00.0,31.2,24.3,11.2,-002.7,0020.92,0014.52,0013.77
2023-01-25 00:48:00,,0824.6,5.02,0.00,22.5,21.2,00.0,31.2,24.3,11.2,-002.8,0020.24,0014.34,0013.62
2023-01-25 00:49:00,,0824.7,5.00,0.00,22.5,21.2,00.0,31.2,24.3,11.2,-002.8,0019.52,0014.18,0013.45
2023-01-25 00:50:00,,0824.6,5.01,0.00,22.5,21.2,00.0,31.2,24.3,11.2,-002.8,0019.08,0013.91,0013.20
2023-01-25 00:51:00,,0824.6,5.00,0.00,22.5,21.2,00.0,31.2,24.3,11.2,-002.7,0019.51,0013.64,0012.98
2023-01-25 00:52:00,,0824.8,5.00,0.00,22.5,21.2,00.0,31.2,24.3,11.1,-002.7,0019.88,0013.44,0012.81
2023-01-25 00:53:00,,0824.7,4.99,0.00,22.4,21.1,00.0,31.2,24.3,11.0,-002.7,0019.94,0013.24,0012.61
2023-01-25 00:54:00,,0824.7,5.00,0.00,22.4,21.1,00.0,31.2,24.3,11.0,-002.8,0019.91,0013.02,0012.41
2023-01-25 00:55:00,,0824.7,5.00,0.00,22.4,21.1,00.0,31.2,24.3,10.9,-002.7,0019.74,0012.82,0012.24
2023-01-25 00:56:00,,0824.6,5.00,0.00,22.4,21.1,00.0,31.2,24.3,10.9,-002.6,0019.56,0012.72,0012.13
2023-01-25 00:57:00,,0824.8,5.00,0.00,22.4,21.1,00.0,31.2,24.3,10.9,-002.5,0019.32,0012.58,0012.01
2023-01-25 00:58:00,,0824.7,4.99,0.00,22.4,21.1,00.0,31.2,24.3,10.8,-002.4,0019.03,0012.37,0011.80
2023-01-25 00:59:00,,0824.7,5.00,0.00,22.4,21.1,00.0,31.2,24.2,10.9,-002.3,0018.58,0012.13,0011.58
